Location: Nitra
(0.0000°N, 18.0833°E)
Time: 21:55:32
(UTC+02:00)

ARIANE 5 DEB (SYLDA) - Visible Passes

Search period start: 30 March 2023 00:00
Search period end: 09 April 2023 00:00
Orbit: 863 x 35885 km, 2.4° (Epoch: 29 March)

Date Brightness Start Highest point End Pass type
(mag) Time Alt. Az. Time Alt. Az. Time Alt. Az.
30 Mar 9.7 06:03:45 12° W 06:35:27 13° W 07:44:06 10° W visible
31 Mar 6.1 02:11:59 10° W 03:59:25 54° W 12:14:30 10° E visible
31 Mar 7.5 23:27:01 10° W 01:10:01 81° E 09:38:32 10° E visible
01 Apr 6.0 20:49:40 10° W 21:01:30 86° N 06:58:27 10° E visible
02 Apr 9.8 22:29:33 10° E 02:27:28 33° E 04:02:27 10° E visible
04 Apr 8.6 03:20:03 10° W 04:57:35 36° W 09:18:22 10° W visible
05 Apr 7.1 00:26:17 10° W 02:15:48 79° W 10:35:40 10° E visible
05 Apr 6.9 21:46:40 10° W 22:05:56 88° N 07:57:59 10° E visible
06 Apr 5.0 19:10:50 10° W 19:18:01 82° N 05:11:55 10° E visible
08 Apr 10.1 00:22:46 10° E 00:49:55 11° E 01:13:20 10° E visible
08 Apr 9.8 05:34:43 18° W 05:53:44 18° W 07:52:04 10° W visible
